Las Vegas, NV

7:47 AM PDT on May 26, 2017 (GMT -0700)
McCarran International

Weather History for KLAS - August, 2013

Change the Weather History Date:

Monday, August 5, 2013

  Actual Average Record
Temperature  
Mean Temperature 93 °F 92 °F  
Max Temperature 105 °F 104 °F 113 °F (1969)
Min Temperature 81 °F 81 °F 63 °F (1953)
Degree Days  
Heating Degree Days 0 0  
Month to date heating degree days 0 0  
Since 1 June heating degree days 0 1  
Since 1 July heating degree days 0 0  
Cooling Degree Days 28 27  
Month to date cooling degree days 141 136  
Year to date cooling degree days 2550 2190  
Since 1 June cooling degree days 1860 1640  
Growing Degree Days 43 (Base 50)    
Moisture  
Dew Point 22 °F    
Average Humidity 10    
Maximum Humidity 15    
Minimum Humidity 4    
Precipitation  
Precipitation 0.00 in 0.02 in 0.19 in (1993)
Month to date precipitation 0.00 0.07  
Year to date precipitation 0.91 2.55  
Snow  
Snow 0.00 in 0.00 in 0.00 in ()
Month to date snowfall 0.0 0.0  
Since 1 June snowfall 0.0 0.0  
Since 1 July snowfall 0.0 0.0  
Snow Depth 0.00 in    
Sea Level Pressure  
Sea Level Pressure 29.77 in    
Wind  
Wind Speed 12 mph (SSW)    
Max Wind Speed 24 mph    
Max Gust Speed 31 mph    
Visibility 10 miles    
Events      
T = Trace of Precipitation, MM = Missing Value Source: NWS Daily Summary

Daily Weather History Graph

Daily Weather History Graph

Search for Another Location

Airport or City:

Trip Planner

Search our weather history database for the weather conditions in past years. The results will help you decide how hot, cold, wet, or windy it might be!

Date:

Astronomy

Aug. 05, 2013 Rise Set
Actual Time 5:51 AM PDT 7:41 PM PDT
Civil Twilight 5:23 AM PDT 8:09 PM PDT
Nautical Twilight 4:49 AM PDT 8:42 PM PDT
Astronomical Twilight 4:13 AM PDT 9:18 PM PDT
Moon 4:49 AM PDT (8/5) 6:45 PM PDT (8/5)
Length of Visible Light 14h 46m
Length of Day
13h 50m
Waning Crescent, 1% of the Moon is Illuminated
Aug 5
Waning Crescent
Aug 6
New
Aug 14
First Quarter
Aug 20
Full
Aug 28
Last Quarter

Hourly Weather History & Observations

Time (PDT) Temp. Dew Point Humidity Pressure Visibility Wind Dir Wind Speed Gust Speed Precip Events Conditions
12:56 AM 89.1 °F 33.1 °F 14% 29.77 in 10.0 mi SSW 10.4 mph - N/A   Partly Cloudy
1:56 AM 89.1 °F 35.1 °F 15% 29.76 in 10.0 mi SSW 13.8 mph - N/A   Partly Cloudy
2:56 AM 88.0 °F 30.9 °F 13% 29.76 in 10.0 mi South 11.5 mph - N/A   Partly Cloudy
3:56 AM 84.0 °F 28.0 °F 13% 29.77 in 10.0 mi SW 6.9 mph - N/A   Partly Cloudy
4:56 AM 84.0 °F 23.0 °F 11% 29.78 in 10.0 mi SSW 8.1 mph - N/A   Partly Cloudy
5:56 AM 81.0 °F 26.1 °F 13% 29.80 in 10.0 mi SSW 8.1 mph - N/A   Partly Cloudy
6:56 AM 84.9 °F 23.0 °F 10% 29.82 in 10.0 mi SSW 5.8 mph - N/A   Partly Cloudy
7:56 AM 87.1 °F 23.0 °F 10% 29.83 in 10.0 mi SSW 8.1 mph - N/A   Partly Cloudy
8:56 AM 90.0 °F 24.1 °F 9% 29.83 in 10.0 mi South 8.1 mph - N/A   Partly Cloudy
9:56 AM 91.9 °F 23.0 °F 8% 29.84 in 10.0 mi South 8.1 mph - N/A   Partly Cloudy
10:22 AM 93.2 °F 21.2 °F 7% 29.93 in 10.0 mi South 11.5 mph - N/A   Scattered Clouds
10:56 AM 97.0 °F 19.9 °F 6% 29.83 in 10.0 mi SSE 5.8 mph - N/A   Mostly Cloudy
11:56 AM 99.0 °F 25.0 °F 7% 29.81 in 10.0 mi South 16.1 mph - N/A   Mostly Cloudy
12:56 PM 102.0 °F 21.9 °F 6% 29.78 in 10.0 mi SSW 18.4 mph 29.9 mph N/A   Mostly Cloudy
1:56 PM 102.9 °F 19.9 °F 5% 29.76 in 10.0 mi SSW 13.8 mph 31.1 mph N/A   Mostly Cloudy
2:56 PM 102.9 °F 19.0 °F 5% 29.74 in 10.0 mi WSW 15.0 mph 24.2 mph N/A   Mostly Cloudy
3:56 PM 102.9 °F 19.9 °F 5% 29.72 in 10.0 mi SW 13.8 mph - N/A   Mostly Cloudy
4:56 PM 104.0 °F 19.9 °F 5% 29.70 in 10.0 mi SW 12.7 mph - N/A   Mostly Cloudy
5:56 PM 102.9 °F 19.0 °F 5% 29.69 in 10.0 mi SW 17.3 mph 21.9 mph N/A   Mostly Cloudy
6:56 PM 99.0 °F 15.1 °F 5% 29.70 in 10.0 mi SW 12.7 mph - N/A   Mostly Cloudy
7:56 PM 98.1 °F 14.0 °F 5% 29.71 in 10.0 mi SSW 15.0 mph - N/A   Mostly Cloudy
8:56 PM 96.1 °F 14.0 °F 5% 29.73 in 10.0 mi SSW 12.7 mph - N/A   Mostly Cloudy
9:56 PM 95.0 °F 16.0 °F 6% 29.73 in 10.0 mi South 12.7 mph - N/A   Mostly Cloudy
10:56 PM 93.0 °F 21.0 °F 7% 29.73 in 10.0 mi South 16.1 mph - N/A   Mostly Cloudy
11:56 PM 91.9 °F 28.9 °F 11% 29.73 in 10.0 mi SSW 16.1 mph - N/A   Scattered Clouds